Regional Weather Roundup
Issued by NWS Upton, NY

Current Version | Previous Version | Text Only | Print | Product List | Glossary On
Versions: 1 2 3 4 5 6 7 8 9 10 11 12 13 14 15 16 17 18 19 20 21 22 23 24 25 26 27 28 29 30 31 32 33 34 35 36 37 38 39 40 41 42 43 44 45 46 47 48 49 50
000
ASUS41 KOKX 021204
RWROKX

REGIONAL WEATHER ROUNDUP
NATIONAL WEATHER SERVICE NEW YORK NY
800 AM EDT WED SEP 02 2015

NOTE: "FAIR" INDICATES FEW OR NO CLOUDS BELOW 12,000 FEET WITH NO
SIGNIFICANT WEATHER AND/OR OBSTRUCTIONS TO VISIBILITY.

NYZ071-072-176-178-NJZ106-104-021300-
NEW YORK CITY METRO AREA


CITY           SKY/WX    TMP DP  RH WIND       PRES   REMARKS
CENTRAL PARK   SUNNY     78  66  66 CALM      30.06R HAZE
LAGUARDIA APRT MOSUNNY   76  67  73 S3        30.03R
KENNEDY INTL   MOSUNNY   75  71  87 S5        30.05R
NEWARK/LIBERTY MOSUNNY   74  71  91 CALM      30.03S FOG
BRNX BOT. GARD   N/A     77  66  69 SW2       30.06S
TETERBORO      SUNNY     75  65  70 CALM      30.03R
$$

NYZ177-179-078>081-021300-
LONG ISLAND NEW YORK

CITY           SKY/WX    TMP DP  RH WIND       PRES   REMARKS
FARMINGDALE    PTSUNNY   73  71  93 W3        30.04R FOG
ISLIP          FOG       71  70  96 CALM      30.03S VSB 1/8
SHIRLEY        FOG       70  70 100 CALM      30.05R VSB 1/4
WESTHAMPTON    FOG       70  70 100 CALM      30.06R VSB<1/4
MONTAUK POINT    N/A     73  70  90 CALM      30.05S
$$

NYZ052-065-067-021300-
HUDSON VALLEY

CITY           SKY/WX    TMP DP  RH WIND       PRES   REMARKS
WHITE PLAINS   MOSUNNY   71  67  87 CALM      30.04S FOG
NEWBURGH       MOSUNNY   68  66  94 CALM      30.06R
MONTGOMERY     SUNNY     65  63  93 CALM      30.05R
POUGHKEEPSIE   SUNNY     65  60  84 CALM      30.04R
ALBANY         MOSUNNY   67  62  84 S3        30.03F
$$

NJZ001-105-106-008-010-013-015-019>022-104-021300-
NEW JERSEY

CITY           SKY/WX    TMP DP  RH WIND       PRES   REMARKS
NEWARK/LIBERTY MOSUNNY   74  71  91 CALM      30.03S FOG
TETERBORO      SUNNY     75  65  70 CALM      30.03R
CALDWELL       SUNNY     68  63  84 CALM      30.05R HAZE
MORRISTOWN     MOSUNNY   64  61  88 CALM      30.05R
SOMERVILLE     MOSUNNY   67  63  87 CALM      30.03S FOG
SUSSEX         SUNNY     62  60  93 CALM      30.06R
ANDOVER          N/A     64  63  96 CALM      30.07R
TRENTON        FOG       70  69  97 CALM      30.04S VSB 1/4
MILLVILLE      CLOUDY    70  69  97 CALM      30.04S FOG
ATLANTIC CITY  FOG       72  71  97 CALM      30.05R VSB<1/4
WRIGHTSTOWN    FOG       70  70 100 S1        30.02S VSB 1/4
TOMS RIVER     CLOUDY    72  70  94 CALM      30.05S
BELMAR         CLOUDY    72  64  78 CALM      30.05S
$$

PAZ047>061-062-071-021300-
EASTERN PENNSYLVANIA

CITY           SKY/WX    TMP DP  RH WIND       PRES   REMARKS
PHILADELPHIA   PTSUNNY   75  71  87 E5        30.04S FOG
ALLENTOWN      SUNNY     68  65  90 CALM      30.06R FOG
SCRANTON       SUNNY     67  62  84 CALM      30.08R
$$

CTZ002-004>006-009-010-012-RIZ004-006-007-MAZ004-011-015-021300-
SOUTHERN NEW ENGLAND
 IN CT

CITY           SKY/WX    TMP DP  RH WIND       PRES   REMARKS
BRADLEY INTL   MOSUNNY   65  62  90 N3        30.02S FOG
HARTFORD       SUNNY     70  66  87 S5        30.02S
DANBURY        SUNNY     66  61  84 CALM      30.06S HAZE
WTRBRY/OXFORD  SUNNY     66  59  77 CALM      30.06S HAZE
BRIDGEPORT     SUNNY     73  68  84 CALM      30.03S HAZE
MERIDEN        SUNNY     68  64  87 CALM      30.03S FOG
NEW HAVEN      SUNNY     71  68  90 CALM      30.03S
CHESTER        NOT AVBL
GROTON         PTSUNNY   72  72 100 SW5       30.03S FOG
WILLIMANTIC    FOG       63  61  93 CALM      30.04S VSB 1/4

 IN RI

CITY           SKY/WX    TMP DP  RH WIND       PRES   REMARKS
PROVIDENCE     SUNNY     68  66  93 S3        30.02F
BLOCK ISLAND   SUNNY     72  72 100 SW9       30.04S
WESTERLY       PTSUNNY   65  64  97 CALM      30.04S FOG

 IN MA

CITY           SKY/WX    TMP DP  RH WIND       PRES   REMARKS
BOSTON         SUNNY     70  63  78 SW9       30.00S
WORCESTER      SUNNY     67  62  84 W9        30.04S
WESTFIELD      SUNNY     63  60  90 CALM      30.03S
PROVINCETOWN     N/A     70  63  78 SW9       30.02R
NANTUCKET      SUNNY     70  67  90 S6        30.03S
$$

ANZ330-335-338-340-345-350-353-355-021300-
COASTAL MARINE OBSERVATIONS


STATION/POSITION TIME  SKY/WX   TEMP    WIND        PRES    VSBY  WAVE
                                AIR SEA DIR/SP/G                  HT/PER
                 (UTC)          (F)     (DEG/KT/KT) (MB)    (MI)  (FT/S)
NY HARB ENTRANCE 1050            74 76  260/  2/  2 1016.7          1/ 9
4S FIRE IS       NOT AVBL
20S FIRE ISLAND  1050            73 74  140/  4/  4 1016.8          2/ 8
GREAT SOUTH BAY  1115            75 78  230/  4/  6   N/A
23SW MTP         1150            72 72  200/  2/  2 1016.9          1/ 8
HUDSON CANYON    NOT AVBL
KINGS POINT      1100            72 74  160/  4/  5 1016.1
EXECUTION ROCKS  1100            74     180/  2/  2   N/A
CENTRAL LI SOUND NOT AVBL
EASTERN LI SOUND 1100            72 70  250/  4/  6   N/A
ROBBINS REEF     1100            73     180/  6/  7 1015.9
$$


>>>>>>>>>>>>>>>>>>>>>>>>>>>> KEY <<<<<<<<<<<<<<<<<<<<<<<<<<<
>                                                          <
>     SKY/WX - SKY CONDITION/PRESENT WEATHER               <
>     TMP    - TEMPERATURE IN FAHRENHEIT                   <
>     DP     - DEWPOINT IN FAHRENHEIT                      <
>     RH     - RELATIVE HUMIDITY IN PERCENT                <
>     WIND   - DIRECTION AND SPEED IN MPH                  <
>     PRES   - MEAN SEA LEVEL PRESSURE IN INCHES OF HG     <
>     WCI    - WIND CHILL INDEX                            <
>     VSB    - VISIBILITY IN MILES                         <
>     HX     - HEAT INDEX                                  <
>     TC     - TEMPERATURE IN CELSIUS                      <
>     VRB    - VARIABLE WIND DIRECTION                     <
>                                                          <
>>>>>>>>>>>>>>>>>>>>>>>>>>>> KEY <<<<<<<<<<<<<<<<<<<<<<<<<<<





USA.gov is the U.S. government's official web portal to all federal, state and local government web resources and services.